Flag for Austria Weather past 2 weeks in Waidhofen an der Thaya, Lower Austria, Austria

Now
71 °F

Passing clouds.


Feels Like: 73 °F
Forecast: 65 / 87 °F
Wind: 3 mph from North

Location: Retz

Current Time: Aug 29, 2015 at 8:40:46 AM

Latest Report: Aug 29, 2015 at 7:00 AM


Visibility: 11 mi

Pressure: 30.16 "Hg (28.44 "Hg at 506m altitude)

Humidity: 74%

Dew point: 62 °F

Location of Waidhofen an der ThayaLocation

Historic Weather in Waidhofen an der Thaya — Graph

°F

Waidhofen an der Thaya temperature yesterday

Maximum temperature yesterday: 86 °F (at 5:00 PM)
Minimum temperature yesterday: 64 °F (at 8:00 AM)
Average temperature yesterday: 74 °F

Past Weeks' High & Low Weather Summary

 TemperatureHumidityPressure
High94 °F (Aug 14, 3:00 PM)98% (Aug 17, 10:00 AM)30.23 "Hg (Aug 17, 10:00 AM)
Low55 °F (Aug 26, 7:00 AM)25% (Aug 14, 3:00 PM)29.66 "Hg (Aug 15, 6:00 PM)
Average69 °F66%29.95 "Hg
* Reported Aug 14 7:00 AM — Aug 29 7:00 AM, Waidhofen an der Thaya, Weather by CustomWeather, © 2015

Note: Actual official high and low records may vary slightly from our data, if they occured in-between our weather recording intervals... More about our weather records

Advertising

Waidhofen an der Thaya weather history for previous 24 hours

 ConditionsComfort  
Time TempWeatherWind HumidityBarometerVisibility
7:00 AM
Sat, Aug 29
71 °FPassing clouds.3 mph74%30.16 "Hg11 mi
6:00 AM70 °FMild.2 mph74%30.15 "HgN/A
5:00 AM71 °FMild.3 mph73%30.14 "HgN/A
3:00 AM71 °FMild.3 mph72%30.11 "HgN/A
2:00 AM70 °FMild.5 mph74%30.11 "HgN/A
1:00 AM75 °FMild.1 mph61%30.09 "HgN/A
12:00 AM76 °FMild.2 mph60%30.09 "HgN/A
9:00 PM
Fri, Aug 28
81 °FWarm.1 mph53%30.04 "HgN/A
8:00 PM82 °FPassing clouds.1 mph52%30.03 "Hg11 mi
7:00 PM83 °FWarm.3 mph51%30.01 "HgN/A
6:00 PM86 °FWarm.3 mph47%30.01 "HgN/A
5:00 PM86 °FWarm.3 mph46%30.01 "HgN/A
4:00 PM85 °FWarm.2 mph52%30.01 "HgN/A
3:00 PM84 °FWarm.3 mph54%30.01 "HgN/A
2:00 PM81 °FScattered clouds.2 mph61%30.03 "Hg11 mi
1:00 PM76 °FMild.1 mph71%30.04 "HgN/A
12:00 PM72 °FMild.2 mph79%30.05 "HgN/A
11:00 AM70 °FMild.2 mph83%30.05 "HgN/A
10:00 AM66 °FMild.1 mph92%30.03 "HgN/A
9:00 AM64 °FMild.1 mph96%30.01 "HgN/A
8:00 AM64 °FFog.2 mph98%29.99 "Hg1 mi
Weather by CustomWeather, © 2015

See weather overviewHow to use our weather pages